This is the latest recevied weather packets stored in our database for station/object CT2IRJ-11. If no packets are shown the sender has not sent any weather packets the latest 10 day(s).
| Time | Temp. | Humidity | Pressure | Rain* | Wind** | Luminosity | Snow |
|---|---|---|---|---|---|---|---|
| 1777995510 | 21.67° C | 52% | 1015.6 hPa | 0 mm | - | 246 W/m² | - |
| 1777995210 | 20.56° C | 54% | 1015.2 hPa | 0 mm | - | 227 W/m² | - |
| 1777994910 | 20.56° C | 54% | 1015.6 hPa | 0 mm | - | 116 W/m² | - |
| 1777994612 | 20.56° C | 54% | 1015.6 hPa | 0 mm | - | 131 W/m² | - |
| 1777994310 | 22.22° C | 51% | 1015.6 hPa | 0 mm | - | 148 W/m² | - |
| 1777994010 | 22.22° C | 52% | 1015.6 hPa | 0 mm | - | 570 W/m² | - |
| 1777993710 | 22.78° C | 49% | 1015.6 hPa | 0 mm | - | 606 W/m² | - |
| 1777993410 | 21.67° C | 53% | 1015.6 hPa | 0 mm | - | 647 W/m² | - |
| 1777993111 | 20.56° C | 54% | 1015.6 hPa | 0 mm | - | 614 W/m² | - |
| 1777992810 | 20.56° C | 55% | 1015.9 hPa | 0 mm | - | 167 W/m² | - |
| 1777992511 | 20° C | 55% | 1015.9 hPa | 0 mm | - | 305 W/m² | - |
| 1777992210 | 21.67° C | 53% | 1015.9 hPa | 0 mm | - | 215 W/m² | - |
| 1777991912 | 20.56° C | 54% | 1015.9 hPa | 0 mm | - | 308 W/m² | - |
| 1777991611 | 20° C | 56% | 1015.9 hPa | 0 mm | - | 171 W/m² | - |
| 1777991310 | 20° C | 55% | 1016.3 hPa | 0 mm | - | 193 W/m² | - |
| 1777991010 | 20.56° C | 55% | 1016.3 hPa | 0 mm | - | 216 W/m² | - |
| 1777990710 | 22.22° C | 53% | 1015.9 hPa | 0 mm | - | 271 W/m² | - |
| 1777990410 | 20.56° C | 56% | 1016.6 hPa | 0 mm | - | 750 W/m² | - |
| 1777989811 | 18.89° C | 60% | 1015.9 hPa | 0 mm | - | 278 W/m² | - |
| 1777989509 | 20° C | 57% | 1016.3 hPa | 0 mm | - | 191 W/m² | - |
| 1777989210 | 20° C | 54% | 1016.3 hPa | 0 mm | - | 214 W/m² | - |
| 1777988910 | 20.56° C | 51% | 1016.6 hPa | 0 mm | - | 299 W/m² | - |
| 1777988609 | 21.67° C | 49% | 1016.3 hPa | 0 mm | - | 458 W/m² | - |
| 1777988310 | 20.56° C | 54% | 1016.6 hPa | 0 mm | - | 325 W/m² | - |
| 1777988009 | 20.56° C | 56% | 1016.3 hPa | 0 mm | - | 316 W/m² | - |
* Rain latest hour (hover to see other rain measurements)
** Current wind speed in m/s (hover to see current wind gust speed)